Location: Worth Mountain WMA
(34.9569°N, 81.4819°W)
Time: 03:09:15
(UTC-05:00)

Amateur Radio Satellites - All Passes

Search period start: 04 December 2016 02:39
Search period end: 05 December 2016 02:39
Location: Worth Mountain WMA, 34.9569°N, 81.4819°W

Satellite Date Start Highest point End Downlink Frequencies (MHz)
Time Altitude Azimuth
Gurwin Techsat 1B 04 Dec 02:45:24 02:50:40 65° 286° (WNW) 02:55:54 435.225
ITUPSAT 1 04 Dec 02:56:28 03:00:57 39° 261° (W) 03:05:26 437.325
O/OREOS (USA 219) 04 Dec 02:59:50 03:04:18 80° 253° (WSW) 03:08:46 437.305
KKS-1 04 Dec 03:09:58 03:13:38 25° 70° (ENE) 03:17:18 437.445
Oscar 19 04 Dec 03:10:27 03:13:59 19° 294° (WNW) 03:17:30 437.125/150
STARS 04 Dec 03:23:46 03:26:31 16° 67° (ENE) 03:29:17 437.465
PHONESAT 2.4 04 Dec 03:26:01 03:28:17 24° 353° (N) 03:30:33 2401.200-2431.200
ITAMSAT 1 04 Dec 03:32:03 03:37:15 78° 103° (ESE) 03:42:24 435.822/435.867
Cosmos 2499 04 Dec 03:38:11 03:41:01 12° 298° (WNW) 03:43:54 435.465 / 435.565
AO-85 04 Dec 03:39:18 03:43:29 27° 306° (NW) 03:47:25 145.980
AO-7 04 Dec 03:54:38 04:02:57 64° 104° (ESE) 04:11:13 29.400- 29.500
CUBESAT XI-V 04 Dec 03:54:59 03:58:42 25° 70° (ENE) 04:02:24 437.345
MOZHAYETS 4 04 Dec 03:58:19 04:02:33 36° 262° (W) 04:06:47
BRITE-PL 04 Dec 04:27:04 04:30:29 17° 93° (E) 04:33:57 437.365/2234.400
BEESAT 3 04 Dec 04:36:08 04:38:00 13° 109° (ESE) 04:39:54 437.485
KKS-1 04 Dec 04:46:26 04:50:04 24° 264° (W) 04:53:44 437.445
SO-50 04 Dec 04:50:55 04:53:31 15° 47° (NE) 04:56:04 436.795
STARS 04 Dec 04:58:23 05:02:30 39° 261° (W) 05:06:40 437.465
BEESAT 2 04 Dec 05:01:11 05:02:05 11° 107° (ESE) 05:03:00 435.950
PHONESAT 2.4 04 Dec 05:01:35 05:03:58 28° 10° (N) 05:06:21 2401.200-2431.200
ITAMSAT 1 04 Dec 05:14:27 05:16:00 11° 298° (WNW) 05:17:34 435.822/435.867
NOAA 15 04 Dec 05:22:03 05:23:56 12° 92° (E) 05:25:47 137.62
CUBESAT XI-V 04 Dec 05:32:05 05:35:56 26° 264° (W) 05:39:47 437.345
AO-7 04 Dec 05:48:27 05:55:04 27° 301° (WNW) 06:01:41 29.400- 29.500
GOMX 1 04 Dec 05:51:44 05:57:02 48° 98° (E) 06:02:18 467.674
HORYU 2 04 Dec 05:54:18 05:58:45 86° 283° (WNW) 06:03:09 437.375
YUBILEINY 04 Dec 05:56:10 06:04:01 34° 74° (ENE) 06:11:49 435.215
BRITE-PL 04 Dec 06:03:49 06:09:07 57° 285° (WNW) 06:14:38 437.365/2234.400
BEESAT 3 04 Dec 06:11:35 06:15:14 39° 303° (WNW) 06:18:56 437.485
DOVE 4 04 Dec 06:14:27 06:19:13 33° 96° (E) 06:23:49 437.250
NOAA 18 04 Dec 06:18:48 06:23:23 26° 96° (E) 06:27:55 137.9125
Cosmos 2491 04 Dec 06:19:57 06:26:58 28° 84° (E) 06:33:55 435.465 / 435.565
LilacSat-2 04 Dec 06:22:16 06:25:58 51° 100° (E) 06:29:37 437.200
AIST 1 04 Dec 06:26:58 06:28:48 12° 73° (ENE) 06:30:37
CUTE-I 04 Dec 06:28:34 06:33:47 54° 100° (E) 06:38:57 437.470
SO-50 04 Dec 06:29:55 06:34:20 57° 244° (WSW) 06:38:40 436.795
STRAND 1 04 Dec 06:35:09 06:40:02 46° 72° (ENE) 06:44:55 437.568
BEESAT 2 04 Dec 06:35:34 06:39:23 48° 302° (WNW) 06:43:14 435.950
Cosmos 2504 04 Dec 06:35:35 06:42:59 29° 72° (ENE) 06:50:01 435.465 / 435.565
PHONESAT 2.4 04 Dec 06:36:44 06:39:21 62° 206° (SSW) 06:41:58 2401.200-2431.200
HO-68 04 Dec 06:47:05 06:50:54 15° 92° (E) 06:54:41 435.675
Cubesat XI-IV 04 Dec 06:53:40 06:59:02 87° 284° (WNW) 07:04:21 437.490
RS-15 04 Dec 06:58:07 07:08:39 42° 106° (ESE) 07:19:37 29.354- 29.394
NOAA 15 04 Dec 06:58:51 07:04:06 69° 286° (WNW) 07:09:21 137.62
CUTE 1.7 + AOD 2 04 Dec 07:01:54 07:02:58 11° 92° (E) 07:04:03 437.475
CANX-2 04 Dec 07:17:30 07:20:43 21° 95° (E) 07:23:55 2200.000
GOMX 1 04 Dec 07:30:47 07:34:41 20° 293° (WNW) 07:38:34 467.674
SEEDS 04 Dec 07:47:22 07:50:55 26° 96° (E) 07:54:28 437.485
PRISM 04 Dec 07:49:05 07:51:11 14° 67° (ENE) 07:53:19 437.425
CINEMA 3 04 Dec 07:49:18 07:54:09 79° 101° (E) 07:58:44 145.822/145.860
DOVE 4 04 Dec 07:52:20 07:56:40 26° 291° (WNW) 08:00:56 437.250
YUBILEINY 04 Dec 07:52:39 08:00:52 46° 272° (W) 08:09:07 435.215
NOAA 18 04 Dec 07:59:03 08:04:02 35° 291° (WNW) 08:08:59 137.9125
COMPASS 1 04 Dec 08:02:08 08:05:38 26° 96° (E) 08:09:07 437.405
AIST 1 04 Dec 08:02:24 08:06:37 46° 267° (W) 08:10:49
CUTE-I 04 Dec 08:10:01 08:13:19 17° 296° (WNW) 08:16:38 437.470
Cosmos 2491 04 Dec 08:14:37 08:23:11 55° 281° (W) 08:31:46 435.465 / 435.565
STRAND 1 04 Dec 08:16:00 08:19:23 18° 266° (W) 08:22:46 437.568
ZACube-1 04 Dec 08:21:17 08:23:15 13° 92° (E) 08:25:11 437.345
CUBEBUG 2 04 Dec 08:22:29 08:26:38 40° 98° (E) 08:30:38 437.445
Cosmos 2504 04 Dec 08:28:15 08:36:42 54° 270° (W) 08:44:40 435.465 / 435.565
FUNcube-1 04 Dec 08:29:50 08:32:18 15° 93° (E) 08:34:45 145.935
HO-68 04 Dec 08:32:02 08:39:15 82° 287° (WNW) 08:46:27 435.675
CUTE 1.7 + AOD 2 04 Dec 08:34:59 08:39:03 49° 285° (WNW) 08:43:06 437.475
AIST 2 04 Dec 08:43:01 08:47:05 86° 118° (ESE) 08:51:15 435.215
CANX-2 04 Dec 08:53:00 08:56:29 26° 289° (WNW) 08:59:59 2200.000
Oscar 11 04 Dec 09:02:04 09:06:04 37° 98° (E) 09:10:03 145.826/435.025
AAUSAT CUBESAT 2 04 Dec 09:09:04 09:13:09 58° 284° (WNW) 09:17:13 437.432
RS-15 04 Dec 09:09:20 09:20:44 54° 307° (NW) 09:32:43 29.354- 29.394
UWE-3 04 Dec 09:09:28 09:13:47 87° 288° (WNW) 09:17:59 435.000/436.395/437.385
UNISAT 6 04 Dec 09:15:12 09:19:19 31° 71° (ENE) 09:23:25 437.425
PRISM 04 Dec 09:22:20 09:26:07 38° 261° (W) 09:29:56 437.425
SEEDS 04 Dec 09:23:20 09:26:25 20° 290° (WNW) 09:29:31 437.485
COMPASS 1 04 Dec 09:37:54 09:41:00 21° 290° (WNW) 09:44:06 437.405
TIGRISAT 04 Dec 09:45:16 09:49:55 63° 75° (ENE) 09:54:33 435.000
ANTELSAT 04 Dec 09:46:08 09:50:48 69° 76° (ENE) 09:55:27 437.575/2403.000
JAS-2 04 Dec 09:53:27 09:58:07 21° 67° (ENE) 10:02:26 435.910
ZACube-1 04 Dec 09:55:44 09:59:43 40° 287° (WNW) 10:03:36 437.345
CUBEBUG 2 04 Dec 10:00:21 10:02:50 15° 294° (WNW) 10:05:17 437.445
FUNcube-1 04 Dec 10:04:49 10:08:38 34° 288° (WNW) 10:12:23 145.935
HUMSAT D 04 Dec 10:06:35 10:10:21 35° 98° (E) 10:14:05 437.325/437.525
NANOSAT C BR1 04 Dec 10:21:55 10:24:21 15° 67° (ENE) 10:26:48 145.865
HO-68 04 Dec 10:22:37 10:25:51 14° 304° (NW) 10:29:06 435.675
QB50P2 04 Dec 10:25:01 10:28:03 19° 69° (ENE) 10:31:05 145.880/145.840
POLYITAN 1 04 Dec 10:25:42 10:28:39 18° 68° (ENE) 10:31:36 437.675
DELFI C3 04 Dec 10:26:22 10:30:16 56° 284° (WNW) 10:34:09 145.870
CUSAT 1 04 Dec 10:27:56 10:31:05 28° 279° (W) 10:33:44 437.405
GONETS M04 04 Dec 10:36:18 10:39:30 12° 63° (ENE) 10:42:41
QB50P1 04 Dec 10:38:47 10:42:19 25° 70° (ENE) 10:45:50 145.935-145.965
Oscar 11 04 Dec 10:39:16 10:41:52 16° 292° (WNW) 10:44:26 145.826/435.025
DUCHIFAT 1 04 Dec 10:44:03 10:47:31 25° 70° (ENE) 10:51:00 145.980
ESTCUBE 1 04 Dec 10:47:23 10:49:39 14° 93° (E) 10:51:55 437.505/2401.250
DANDE 04 Dec 10:50:51 10:56:16 85° 277° (W) 11:00:16 436.750
UNISAT 6 04 Dec 10:52:21 10:55:58 22° 265° (W) 10:59:37 437.425
POPSAT HIP 1 04 Dec 10:59:28 11:03:31 43° 74° (ENE) 11:07:36 437.405
PCSat 04 Dec 11:00:28 11:04:31 22° 106° (ESE) 11:08:35 145.827
TIGRISAT 04 Dec 11:25:55 11:26:55 11° 269° (W) 11:27:54 435.000
RS-15 04 Dec 11:29:20 11:37:02 18° 336° (NNW) 11:44:55 29.354- 29.394
CUBEBUG 1 04 Dec 11:33:04 11:36:52 27° 97° (E) 11:40:38 437.445
Cosmos 2499 04 Dec 11:34:12 11:41:59 37° 74° (ENE) 11:49:15 435.465 / 435.565
JAS-2 04 Dec 11:36:11 11:42:51 55° 259° (W) 11:48:47 435.910
VELOX 1 04 Dec 11:38:53 11:42:15 21° 95° (E) 11:45:35 145.980
HUMSAT D 04 Dec 11:43:21 11:45:37 15° 292° (WNW) 11:47:52 437.325/437.525
BUGSAT 1 04 Dec 11:48:40 11:52:45 52° 74° (ENE) 11:56:53 437.445
NANOSAT C BR1 04 Dec 11:55:43 11:59:42 39° 261° (W) 12:03:43 145.865
DX 1 04 Dec 11:59:20 12:02:19 18° 95° (E) 12:05:17 434.975-435.025
QB50P2 04 Dec 11:59:49 12:03:35 30° 262° (W) 12:07:24 145.880/145.840
POLYITAN 1 04 Dec 12:00:20 12:04:10 32° 262° (W) 12:08:02 437.675
UKube-1 04 Dec 12:10:34 12:13:27 17° 95° (E) 12:16:18 .
AO-85 04 Dec 12:13:18 12:17:12 70° 244° (WSW) 12:21:03 145.980
QB50P1 04 Dec 12:14:38 12:17:58 22° 264° (W) 12:21:21 145.935-145.965
DUCHIFAT 1 04 Dec 12:19:44 12:23:05 23° 264° (W) 12:26:29 145.980
ESTCUBE 1 04 Dec 12:22:19 12:26:38 45° 287° (WNW) 12:30:56 437.505/2401.250
50 SAT 04 Dec 12:25:01 12:28:33 64° 101° (E) 12:32:05 437.505
Gurwin Techsat 1B 04 Dec 12:25:46 12:28:56 16° 64° (ENE) 12:32:07 435.225
SPROUT 04 Dec 12:26:27 12:30:37 47° 99° (E) 12:34:44 437.525
GONETS M04 04 Dec 12:29:02 12:37:46 76° 82° (E) 12:46:30
AISAT 04 Dec 12:37:14 12:41:44 76° 283° (WNW) 12:46:10 437.250
POPSAT HIP 1 04 Dec 12:37:31 12:39:28 13° 267° (W) 12:41:25 437.405
PCSat 04 Dec 12:42:28 12:47:34 42° 301° (WNW) 12:52:43 145.827
Oscar 19 04 Dec 12:43:37 12:48:31 48° 72° (ENE) 12:53:27 437.125/150
JUGNU 04 Dec 12:50:34 12:54:14 17° 173° (S) 12:57:52 437.505
AO-7 04 Dec 13:04:02 13:06:44 12° 50° (NE) 13:09:26 29.400- 29.500
CUBEBUG 1 04 Dec 13:09:30 13:12:58 23° 291° (WNW) 13:16:24 437.445
VELOX 1 04 Dec 13:14:47 13:18:40 30° 289° (WNW) 13:22:32 145.980
Cosmos 2499 04 Dec 13:27:15 13:35:04 41° 273° (W) 13:42:21 435.465 / 435.565
BUGSAT 1 04 Dec 13:27:43 13:28:22 10° 268° (W) 13:29:01 437.445
DX 1 04 Dec 13:34:35 13:38:32 33° 289° (WNW) 13:42:28 434.975-435.025
UKube-1 04 Dec 13:45:37 13:49:31 33° 288° (WNW) 13:53:25 .
RS-15 04 Dec 13:50:29 13:57:04 15° 15° (NNE) 14:03:37 29.354- 29.394
TISAT 1 04 Dec 13:55:16 13:59:31 80° 102° (ESE) 14:03:42 437.305
M-CUBED/EXP-1 PRIME 04 Dec 13:57:15 13:59:56 15° 97° (E) 14:02:33 437.505
Gurwin Techsat 1B 04 Dec 14:03:09 14:08:22 56° 259° (W) 14:13:37 435.225
SPROUT 04 Dec 14:04:13 14:06:04 13° 294° (WNW) 14:07:55 437.525
Oscar 19 04 Dec 14:24:52 14:28:02 17° 267° (W) 14:31:15 437.125/150
SRMSAT 04 Dec 14:26:30 14:29:17 14° 169° (SSE) 14:32:06 437.500
GONETS M04 04 Dec 14:28:04 14:33:32 19° 280° (W) 14:39:01
SWISSCUBE 04 Dec 14:29:28 14:33:49 35° 98° (E) 14:38:09 437.505
BEESAT 3 04 Dec 14:31:20 14:35:04 37° 57° (ENE) 14:38:46 437.485
BEESAT 04 Dec 14:33:44 14:38:05 35° 98° (E) 14:42:24 436.000
JUGNU 04 Dec 14:38:40 14:42:31 18° 184° (S) 14:46:22 437.505
ITAMSAT 1 04 Dec 14:46:33 14:51:47 85° 74° (ENE) 14:57:01 435.822/435.867
AO-7 04 Dec 14:49:43 14:57:51 64° 69° (ENE) 15:06:04 29.400- 29.500
BEESAT 2 04 Dec 14:56:25 15:00:03 32° 55° (NE) 15:03:40 435.950
ITUPSAT 1 04 Dec 14:59:48 15:04:33 68° 102° (ESE) 15:09:16 437.325
AUBIESAT-1 04 Dec 15:19:22 15:23:58 76° 289° (WNW) 15:28:21 437.475
M-CUBED/EXP-1 PRIME 04 Dec 15:30:06 15:34:35 47° 291° (WNW) 15:38:54 437.505
O/OREOS (USA 219) 04 Dec 15:31:02 15:34:04 18° 100° (E) 15:37:05 437.305
MOZHAYETS 4 04 Dec 15:56:04 16:00:36 66° 101° (E) 16:05:08
RS-15 04 Dec 16:03:09 16:14:35 41° 47° (NE) 16:25:38 29.354- 29.394
SWISSCUBE 04 Dec 16:07:53 16:11:20 20° 293° (WNW) 16:14:46 437.505
BEESAT 3 04 Dec 16:10:07 16:12:20 14° 251° (WSW) 16:14:32 437.485
BEESAT 04 Dec 16:12:07 16:15:35 20° 293° (WNW) 16:19:03 436.000
SRMSAT 04 Dec 16:13:50 16:17:43 18° 178° (S) 16:21:36 437.500
JUGNU 04 Dec 16:28:33 16:30:47 12° 193° (SSW) 16:33:00 437.505
BEESAT 2 04 Dec 16:34:51 16:37:35 18° 250° (WSW) 16:40:18 435.950
Cubesat XI-IV 04 Dec 16:36:00 16:38:14 13° 62° (ENE) 16:40:29 437.490
NOAA 15 04 Dec 16:38:41 16:41:35 15° 64° (ENE) 16:44:29 137.62
KKS-1 04 Dec 16:39:33 16:44:03 81° 102° (ESE) 16:48:31 437.445
ITUPSAT 1 04 Dec 16:40:22 16:41:45 11° 297° (WNW) 16:43:09 437.325
AO-7 04 Dec 16:44:43 16:51:02 24° 264° (W) 16:57:27 29.400- 29.500
HORYU 2 04 Dec 16:48:39 16:53:02 57° 74° (ENE) 16:57:26 437.375
ISS 04 Dec 16:50:04 16:53:20 82° 317° (NW) 16:56:39 145.825
STARS 04 Dec 16:50:43 16:54:58 46° 100° (E) 16:59:12 437.465
GOMX 1 04 Dec 16:57:04 17:01:00 31° 70° (ENE) 17:05:10 467.674
LilacSat-2 04 Dec 17:01:56 17:04:25 17° 70° (ENE) 17:06:54 437.200
AIST 2 04 Dec 17:07:53 17:11:11 21° 52° (NE) 17:14:27 435.215
O/OREOS (USA 219) 04 Dec 17:08:56 17:13:08 36° 295° (WNW) 17:17:21 437.305
BRITE-PL 04 Dec 17:11:57 17:16:07 65° 260° (W) 17:20:32 437.365/2234.400
DOVE 4 04 Dec 17:16:59 17:20:33 22° 67° (ENE) 17:24:17 437.250
CUBESAT XI-V 04 Dec 17:30:48 17:35:28 85° 283° (WNW) 17:40:09 437.345
MOZHAYETS 4 04 Dec 17:36:19 17:37:10 10° 296° (WNW) 17:38:00
NOAA 18 04 Dec 17:41:37 17:46:38 37° 69° (ENE) 17:51:42 137.9125
CUTE-I 04 Dec 17:46:56 17:52:14 64° 74° (ENE) 17:57:33 437.470
SRMSAT 04 Dec 18:02:48 18:06:10 15° 189° (S) 18:09:30 437.500
CANX-2 04 Dec 18:09:39 18:10:20 10° 66° (ENE) 18:11:00 2200.000
Cubesat XI-IV 04 Dec 18:12:14 18:17:37 74° 257° (WSW) 18:23:00 437.490
RS-15 04 Dec 18:15:38 18:27:38 61° 249° (WSW) 18:39:09 29.354- 29.394
NOAA 15 04 Dec 18:15:40 18:20:49 59° 259° (WSW) 18:26:00 137.62
STARS 04 Dec 18:28:37 18:30:53 14° 294° (WNW) 18:33:07 437.465
HORYU 2 04 Dec 18:28:47 18:29:52 11° 268° (W) 18:30:58 437.375
Cosmos 2491 04 Dec 18:28:51 18:37:31 65° 81° (E) 18:46:07 435.465 / 435.565
ISS 04 Dec 18:28:59 18:30:17 12° 334° (NNW) 18:31:37 145.825
LilacSat-2 04 Dec 18:35:08 18:38:27 27° 263° (W) 18:41:48 437.200
GOMX 1 04 Dec 18:35:49 18:39:08 20° 267° (W) 18:42:36 467.674
SEEDS 04 Dec 18:37:28 18:39:18 13° 67° (ENE) 18:41:08 437.485
AIST 2 04 Dec 18:45:56 18:49:40 31° 248° (WSW) 18:53:23 435.215
CINEMA 3 04 Dec 18:46:44 18:51:25 48° 74° (ENE) 18:56:14 145.822/145.860
STRAND 1 04 Dec 18:49:47 18:53:30 20° 95° (E) 18:57:11 437.568
COMPASS 1 04 Dec 18:51:30 18:53:02 12° 67° (ENE) 18:54:35 437.405
YUBILEINY 04 Dec 18:52:46 19:00:47 44° 88° (E) 19:08:51 435.215
DOVE 4 04 Dec 18:53:45 18:57:57 34° 264° (W) 19:02:25 437.250
HO-68 04 Dec 18:56:38 19:03:32 54° 70° (ENE) 19:10:28 435.675
Cosmos 2504 04 Dec 19:10:01 19:16:23 25° 82° (E) 19:23:01 435.465 / 435.565
CUBEBUG 2 04 Dec 19:17:03 19:20:55 25° 70° (ENE) 19:24:47 437.445
NOAA 18 04 Dec 19:22:49 19:27:18 25° 264° (W) 19:31:50 137.9125
CUTE 1.7 + AOD 2 04 Dec 19:23:47 19:27:58 73° 77° (ENE) 19:32:10 437.475
CUTE-I 04 Dec 19:30:10 19:32:38 13° 268° (W) 19:35:07 437.470
CANX-2 04 Dec 19:41:30 19:45:39 56° 260° (W) 19:49:48 2200.000
PCSat 04 Dec 19:53:14 19:54:20 11° 45° (NE) 19:55:25 145.827
Oscar 11 04 Dec 19:54:13 19:57:20 20° 69° (ENE) 20:00:28 145.826/435.025
AAUSAT CUBESAT 2 04 Dec 19:55:33 19:59:34 55° 75° (ENE) 20:03:35 437.432
UWE-3 04 Dec 20:02:20 20:06:51 50° 74° (ENE) 20:11:20 435.000/436.395/437.385
SEEDS 04 Dec 20:10:35 20:14:35 44° 261° (W) 20:18:34 437.485
COMPASS 1 04 Dec 20:24:10 20:28:08 46° 261° (W) 20:32:07 437.405
CINEMA 3 04 Dec 20:25:54 20:28:45 16° 268° (W) 20:31:42 145.822/145.860
Cosmos 2491 04 Dec 20:27:13 20:33:31 23° 278° (W) 20:39:49 435.465 / 435.565
AIST 1 04 Dec 20:27:44 20:31:59 67° 278° (W) 20:36:19
STRAND 1 04 Dec 20:28:02 20:32:46 39° 289° (WNW) 20:37:28 437.568
SO-50 04 Dec 20:40:13 20:45:01 82° 298° (WNW) 20:49:46 436.795
HO-68 04 Dec 20:45:53 20:51:29 25° 265° (W) 20:57:09 435.675
ZACube-1 04 Dec 20:47:06 20:51:40 84° 256° (WSW) 20:56:14 437.345
YUBILEINY 04 Dec 20:49:51 20:57:35 35° 285° (WNW) 21:05:26 435.215
CUBEBUG 2 04 Dec 20:53:17 20:57:22 28° 264° (W) 21:01:28 437.445
HUMSAT D 04 Dec 20:55:18 20:58:06 17° 69° (ENE) 21:00:53 437.325/437.525
FUNcube-1 04 Dec 20:55:47 21:00:21 73° 260° (W) 21:04:51 145.935
CUSAT 1 04 Dec 21:00:16 21:04:00 85° 80° (E) 21:08:57 437.405
Cosmos 2504 04 Dec 21:00:57 21:09:00 59° 280° (W) 21:17:37 435.465 / 435.565
PRISM 04 Dec 21:06:44 21:10:32 34° 98° (E) 21:14:19 437.425
DELFI C3 04 Dec 21:08:26 21:12:12 47° 75° (ENE) 21:15:59 145.870
Oscar 11 04 Dec 21:29:28 21:33:14 29° 263° (W) 21:37:02 145.826/435.025
DANDE 04 Dec 21:31:23 21:34:01 32° 81° (E) 21:37:11 436.750
PCSat 04 Dec 21:33:11 21:38:37 75° 62° (ENE) 21:44:02 145.827
UWE-3 04 Dec 21:41:11 21:43:29 14° 268° (W) 21:45:48 435.000/436.395/437.385
TIGRISAT 04 Dec 21:41:40 21:44:20 16° 93° (E) 21:46:58 435.000
ANTELSAT 04 Dec 21:42:30 21:45:25 17° 94° (E) 21:48:17 437.575/2403.000
SO-50 04 Dec 22:25:21 22:26:11 10° 316° (NW) 22:27:01 436.795
CUBEBUG 1 04 Dec 22:26:50 22:29:25 16° 67° (ENE) 22:32:01 437.445
HUMSAT D 04 Dec 22:29:38 22:33:27 32° 263° (W) 22:37:14 437.325/437.525
VELOX 1 04 Dec 22:34:23 22:36:20 13° 65° (ENE) 22:38:17 145.980
PRISM 04 Dec 22:42:54 22:45:31 16° 292° (WNW) 22:48:08 437.425
UNISAT 6 04 Dec 22:46:19 22:50:43 78° 284° (WNW) 22:55:00 437.425
JAS-2 04 Dec 22:49:53 22:53:28 18° 95° (E) 22:57:10 435.910
DX 1 04 Dec 22:53:48 22:54:47 11° 64° (ENE) 22:55:45 434.975-435.025
50 SAT 04 Dec 22:58:20 23:00:26 15° 69° (ENE) 23:02:31 437.505
UKube-1 04 Dec 23:04:41 23:04:54 10° 64° (ENE) 23:05:08 .
SPROUT 04 Dec 23:16:58 23:20:25 24° 70° (ENE) 23:23:54 437.525
TIGRISAT 04 Dec 23:17:07 23:21:08 36° 288° (WNW) 23:25:04 435.000
ESTCUBE 1 04 Dec 23:18:02 23:22:29 77° 258° (WSW) 23:26:58 437.505/2401.250
ANTELSAT 04 Dec 23:18:15 23:22:11 33° 288° (WNW) 23:26:01 437.575/2403.000
PCSat 04 Dec 23:19:36 23:21:17 11° 258° (WSW) 23:22:58 145.827
ISS 04 Dec 23:20:54 23:23:45 26° 34° (NE) 23:26:34 145.825
AISAT 04 Dec 23:30:55 23:35:16 62° 74° (ENE) 23:39:38 437.250
GONETS M04 04 Dec 23:33:50 23:38:35 16° 79° (E) 23:43:18
NANOSAT C BR1 04 Dec 23:43:09 23:47:08 39° 99° (E) 23:51:04 145.865
QB50P2 04 Dec 23:47:24 23:51:34 53° 100° (E) 23:55:40 145.880/145.840
POLYITAN 1 04 Dec 23:48:01 23:52:08 50° 100° (E) 23:56:12 437.675
CUBEBUG 1 05 Dec 00:01:16 00:05:20 39° 261° (W) 00:09:27 437.445
QB50P1 05 Dec 00:01:27 00:05:42 74° 101° (E) 00:09:54 145.935-145.965
Cosmos 2499 05 Dec 00:05:54 00:13:06 33° 85° (E) 00:20:36 435.465 / 435.565
DUCHIFAT 1 05 Dec 00:05:57 00:10:10 71° 102° (ESE) 00:14:19 145.980
VELOX 1 05 Dec 00:08:03 00:12:18 50° 260° (W) 00:16:37 145.980
POPSAT HIP 1 05 Dec 00:22:53 00:27:04 61° 285° (WNW) 00:31:13 437.405
DX 1 05 Dec 00:26:08 00:30:24 60° 259° (W) 00:34:42 434.975-435.025
PHONESAT 2.4 05 Dec 00:27:07 00:29:32 31° 150° (SSE) 00:31:57 2401.200-2431.200
50 SAT 05 Dec 00:30:37 00:33:30 24° 263° (W) 00:36:24 437.505
JAS-2 05 Dec 00:33:51 00:38:43 42° 288° (WNW) 00:43:49 435.910
UKube-1 05 Dec 00:36:06 00:40:21 62° 258° (WSW) 00:44:38 .
M-CUBED/EXP-1 PRIME 05 Dec 00:41:54 00:42:45 11° 58° (ENE) 00:43:37 437.505
TISAT 1 05 Dec 00:43:27 00:47:20 36° 73° (ENE) 00:51:15 437.305
SPROUT 05 Dec 00:52:46 00:56:13 24° 264° (W) 00:59:43 437.525
ISS 05 Dec 00:57:23 01:00:11 26° 230° (SW) 01:02:59 145.825
Oscar 19 05 Dec 00:59:06 01:03:06 22° 95° (E) 01:07:05 437.125/150
BUGSAT 1 05 Dec 01:08:52 01:12:59 54° 285° (WNW) 01:17:00 437.445
NANOSAT C BR1 05 Dec 01:20:09 01:22:28 14° 293° (WNW) 01:24:45 145.865
GONETS M04 05 Dec 01:25:26 01:34:10 85° 276° (W) 01:42:56
QB50P2 05 Dec 01:25:34 01:26:50 11° 295° (WNW) 01:28:06 145.880/145.840
POLYITAN 1 05 Dec 01:25:55 01:27:26 12° 294° (WNW) 01:28:57 437.675
SWISSCUBE 05 Dec 01:32:50 01:36:54 29° 70° (ENE) 01:41:00 437.505
BEESAT 05 Dec 01:37:02 01:41:07 29° 70° (ENE) 01:45:10 436.000
O/OREOS (USA 219) 05 Dec 01:43:28 01:46:48 20° 61° (ENE) 01:50:07 437.305
Cosmos 2499 05 Dec 01:57:44 02:05:48 49° 283° (WNW) 02:14:19 435.465 / 435.565
AUBIESAT-1 05 Dec 02:01:26 02:05:26 75° 71° (ENE) 02:09:45 437.475
PHONESAT 2.4 05 Dec 02:02:14 02:04:45 38° 344° (NNW) 02:07:16 2401.200-2431.200
ITUPSAT 1 05 Dec 02:03:05 02:07:45 53° 73° (ENE) 02:12:24 437.325
M-CUBED/EXP-1 PRIME 05 Dec 02:12:38 02:16:32 62° 255° (WSW) 02:20:47 437.505
TISAT 1 05 Dec 02:20:36 02:23:04 15° 266° (W) 02:25:33 437.305
Gurwin Techsat 1B 05 Dec 02:22:35 02:27:54 76° 102° (ESE) 02:33:13 435.225
AO-85 05 Dec 02:23:18 02:28:21 84° 118° (ESE) 02:33:03 145.980
